Погода в Каменном Броде

Россия / Самарская область     52°53′40″N   49°58′05″E
темп.,
°C
ветер,
м/с
пор.,
м/с
влажн.,
%
обл.,
%
осадки,
мм/ч
давл.,
гПа
погр.,
м
16 июня, ср
ср1601:00+21вюв51255100 0.0 1008225
04:00+18вюв48589 0.0 1008127
07:00+19юв5117291 0.3 1007321
10:00+24ююз68675 0.3 1008718
13:00+26ююз8105720 0.0 10091769
16:00+25юз6106876 0.1 1009821
19:00+23ююз477613 1.1 1008253
22:00+19юз369052 3.0 100894
17 июня, чт
чт1701:00+18зюз229446 0.0 100841
04:00+18сз599740 0.0 1009291
07:00+18ссз6991100 0.0 1011574
10:00+20ссз687879 0.0 1013884
13:00+23с78481 0.0 10141397
16:00+23с68490 0.0 10151627
19:00+21с47620 0.0 1017266
22:00+16ссз47690 0.0 1019132
18 июня, пт
пт1801:00+14ссз33740 0.0 101946
04:00+13ссз410720 0.0 1021244
07:00+15с611680 0.0 1023760
10:00+17ссв68504 0.0 10241491
13:00+20ссв68470 0.0 10241624
16:00+20ссв67487 0.0 10241812
19:00+19ссв47624 0.0 1025332
22:00+15ссв337499 0.0 102631
19 июня, сб
сб1901:00+13с2281100 0.0 102711
04:00+12с118463 0.0 102710
07:00+16зсз11711 0.0 1028157
10:00+20зсз22545 0.0 1028777
13:00+23зсз344767 0.0 10271258
16:00+24зсз4546100 0.0 10251362
19:00+23зсз246320 0.0 1024136
22:00+18зюз33790 0.0 102527
20 июня, вс
вс2001:00+17з34840 0.0 102548
04:00+16з33920 0.0 102544
07:00+20зсз34820 0.0 1025181
10:00+25сз34630 0.0 1024776
13:00+28зсз45510 0.0 10231851
16:00+29сз444821 0.0 10231669
19:00+26сз35641 0.0 1022149
22:00+21ссз22760 0.0 102311